Simultaneous Nadir Overpasses (SNOs) Predictions

Prediction of SNOs between METOP-A and NPP Satellite Orbit:

Table of predicted SNOs for the next 14.0 days since TLE Epoch: 1/18/2013
Index Date (METOP-A) Time (METOP-A) Lat,Lon (METOP-A) SZA (METOP-A ) Date (NPP) Time (NPP) Lat,Lon (NPP) SZA (NPP ) Distance(km) Time Diff (sec)
1 02/01/2013 13:00:50 73.29, -22.58 90.44 02/01/2013 12:59:41 73.30, -24.73 90.58 68.73 69
2 02/01/2013 13:51:34 -73.20, 144.54 89.66 02/01/2013 13:50:24 -73.23, 142.72 89.50 58.42 70
3 02/01/2013 14:42:18 72.96, -48.63 90.13 02/01/2013 14:41:05 72.96, -49.38 90.19 24.50 73
4 02/01/2013 15:33:02 -72.87, 118.50 89.97 02/01/2013 15:31:48 -72.90, 118.07 89.89 14.61 74
5 02/01/2013 16:23:43 72.79, -74.34 89.96 02/01/2013 16:22:32 72.78, -74.37 89.97 1.52 71
6 02/01/2013 17:14:26 -72.75, 92.90 90.09 02/01/2013 17:13:16 -72.77, 92.97 90.06 3.24 70
7 02/01/2013 18:05:05 72.76, -99.73 89.92 02/01/2013 18:04:02 72.75, -99.68 89.91 2.53 63
8 02/01/2013 18:55:47 -72.77, 67.62 90.09 02/01/2013 18:54:47 -72.79, 67.55 90.06 2.58 60




NCC Satellite Simultaneous Nadir Overpasses (SNOs) Prediction Service
